Volver al catálogo

COSMOS 886 DEB

ActivoUNKNOWN
NORAD 9649·DEBRIS·🇷🇺 Russia

Lanzado Dec 27, 1976 desde Baikonur Cosmodrome

Loading…

Próximos Pases (próximas 24 horas)

TLE

ActualizadoSource: Space-Track

Época: Sep 13, 2026, 23:00 UTC

1 09649U 76126F   26256.95901161  .00000051  00000-0  96403-4 0  9995
2 09649  65.9287  98.1547 0918994 242.4526 108.0235 12.71761851274243

Sigue COSMOS 886 DEB en tiempo real con AllMySat

Download on the App Store